Location: Taylor Dark Sky Site
(39.1017°N, 87.9564°W)
Time: 12:20:36
(UTC-05:00)

Amateur Radio Satellites - All Passes

Search period start: 23 August 2014 11:50
Search period end: 24 August 2014 11:50
Location: Taylor Dark Sky Site, 39.1017°N, 87.9564°W

Satellite Date Start Highest point End Downlink Frequencies (MHz)
Time Altitude Azimuth
HO-68 23 Aug 11:54:08 11:58:55 20° 303° (WNW) 12:03:43 435.675 MHz FM
JAS-1B 23 Aug 12:00:36 12:03:51 12° 49° (NE) 12:07:01 435.800 - 435.900 CW/SSB
Oscar 16 23 Aug 12:10:36 12:12:59 13° 61° (ENE) 12:15:22 437.025 USB, Beacon 2401.1428
FUNcube-1 23 Aug 12:25:00 12:28:11 20° 293° (WNW) 12:31:25 145.950 - 145.970 MHz USB
RS-15 23 Aug 12:27:30 12:35:41 23° 334° (NNW) 12:43:55 29.354 - 29.394 USB, Beacon 29.352 USB
AO-Echo 23 Aug 13:07:32 13:11:19 21° 66° (ENE) 13:15:02 ?
SO-50 23 Aug 13:09:50 13:12:06 13° 40° (NE) 13:14:22 436.795 FM
Oscar 19 23 Aug 13:13:18 13:18:14 50° 72° (ENE) 13:23:14 437.125 CW, 437.150 USB
ITAMSAT 1 23 Aug 13:27:45 13:32:14 31° 68° (ENE) 13:36:43 435.822 SSB
ISS 23 Aug 13:37:17 13:40:36 89° 153° (SSE) 13:43:56 145.800 FM
Gurwin Techsat 1B 23 Aug 13:38:00 13:41:24 18° 63° (ENE) 13:44:47 435.225 FM
Uribyol 2 23 Aug 13:39:26 13:44:15 42° 70° (ENE) 13:49:05 436.500 FM
JAS-1B 23 Aug 13:42:57 13:52:24 53° 68° (ENE) 14:01:18 435.800 - 435.900 CW/SSB
Oscar 16 23 Aug 13:46:31 13:51:39 76° 257° (WSW) 13:56:50 437.025 USB, Beacon 2401.1428
AO-27 23 Aug 13:53:54 13:58:57 55° 72° (ENE) 14:04:01 436.795 MHz FM
AO-7 23 Aug 14:17:54 14:22:45 17° 50° (NE) 14:27:35 29.400 - 29.500 MHz
TMSAT-1 23 Aug 14:33:04 14:37:58 40° 70° (ENE) 14:42:52 436.925 FM
AO-Echo 23 Aug 14:44:51 14:49:47 45° 261° (W) 14:54:37 ?
RS-15 23 Aug 14:46:58 14:53:51 18° 11° (NNE) 15:00:49 29.354 - 29.394 USB, Beacon 29.352 USB
SO-50 23 Aug 14:48:34 14:53:23 83° 58° (ENE) 14:58:14 436.795 FM
MaSat-1 23 Aug 14:53:33 14:58:07 57° 110° (ESE) 15:03:08 437.345 MHz
Oscar 19 23 Aug 14:54:21 14:57:51 18° 267° (W) 15:01:22 437.125 CW, 437.150 USB
ITAMSAT 1 23 Aug 15:07:07 15:11:39 30° 263° (W) 15:16:12 435.822 SSB
ISS 23 Aug 15:15:27 15:17:43 17° 339° (NNW) 15:20:00 145.800 FM
Gurwin Techsat 1B 23 Aug 15:15:37 15:20:51 60° 259° (W) 15:26:06 435.225 FM
Uribyol 2 23 Aug 15:19:56 15:23:52 22° 266° (W) 15:27:50 436.500 FM
Uosat F 23 Aug 15:28:52 15:33:02 27° 67° (ENE) 15:37:12 435.120 FM
JAS-1B 23 Aug 15:33:42 15:42:51 42° 264° (W) 15:51:40 435.800 - 435.900 CW/SSB
AO-27 23 Aug 15:35:32 15:38:47 17° 268° (W) 15:42:02 436.795 MHz FM
UOSAT-12 23 Aug 15:53:14 15:57:29 32° 50° (NE) 16:01:40 437.025 FM, 437.400 FM
AO-7 23 Aug 16:05:52 16:14:11 77° 70° (ENE) 16:22:31 29.400 - 29.500 MHz
TMSAT-1 23 Aug 16:13:47 16:17:59 24° 266° (W) 16:22:12 436.925 FM
PANSAT 23 Aug 16:19:22 16:21:32 15° 171° (S) 16:23:42 not established
OPAL 23 Aug 16:23:10 16:27:03 21° 96° (E) 16:30:55 ?
MaSat-1 23 Aug 16:32:07 16:35:39 20° 309° (NW) 16:39:21 437.345 MHz
SO-50 23 Aug 16:32:14 16:33:17 11° 254° (WSW) 16:34:20 436.795 FM
RS-15 23 Aug 17:00:09 17:10:27 42° 44° (NE) 17:21:01 29.354 - 29.394 USB, Beacon 29.352 USB
Hamsat 23 Aug 17:02:57 17:05:53 18° 67° (ENE) 17:08:51 145.90 MHz
Uosat F 23 Aug 17:07:09 17:11:40 33° 263° (W) 17:16:12 435.120 FM
Sapphire 23 Aug 17:28:10 17:30:53 14° 103° (ESE) 17:33:36 437.095 MHz 1200 baud AX-25 AFSK
UOSAT-12 23 Aug 17:33:29 17:37:33 29° 247° (WSW) 17:41:34 437.025 FM, 437.400 FM
JAS-2 23 Aug 17:49:04 17:55:39 62° 73° (ENE) 18:01:28 435.800 - 435.900 CW/SSB, 435.910 FM
PCSat 23 Aug 17:56:19 18:00:54 29° 108° (ESE) 18:05:30 145.825 MHz
PANSAT 23 Aug 17:58:37 18:01:04 16° 184° (S) 18:03:30 not established
OPAL 23 Aug 18:01:08 18:06:06 46° 291° (WNW) 18:11:04 ?
AO-7 23 Aug 18:01:40 18:07:40 22° 267° (W) 18:13:42 29.400 - 29.500 MHz
ISS 23 Aug 18:31:16 18:33:26 16° 20° (NNE) 18:35:35 145.800 FM
Hamsat 23 Aug 18:37:36 18:41:33 37° 263° (W) 18:45:34 145.90 MHz
SO-67 23 Aug 18:38:09 18:41:01 25° 72° (ENE) 18:43:55 435.3500 MHz FM
Sapphire 23 Aug 19:08:15 19:13:37 72° 299° (WNW) 19:19:03 437.095 MHz 1200 baud AX-25 AFSK
RS-15 23 Aug 19:12:28 19:23:19 62° 246° (WSW) 19:34:37 29.354 - 29.394 USB, Beacon 29.352 USB
STRAND 1 23 Aug 19:31:50 19:36:54 62° 101° (ESE) 19:41:56 ?
JAS-2 23 Aug 19:36:22 19:40:57 20° 266° (W) 19:45:14 435.800 - 435.900 CW/SSB, 435.910 FM
PCSat 23 Aug 19:39:08 19:44:08 38° 305° (NW) 19:49:11 145.825 MHz
ISS 23 Aug 20:07:16 20:10:36 79° 37° (NE) 20:13:56 145.800 FM
SO-67 23 Aug 20:11:51 20:14:04 16° 266° (W) 20:16:19 435.3500 MHz FM
HO-68 23 Aug 20:31:53 20:38:47 54° 68° (ENE) 20:45:41 435.675 MHz FM
Sapphire 23 Aug 20:55:48 20:58:02 12° 319° (NW) 21:00:16 437.095 MHz 1200 baud AX-25 AFSK
STRAND 1 23 Aug 21:12:34 21:15:33 16° 298° (WNW) 21:18:32 ?
UKube-1 23 Aug 21:24:15 21:28:35 77° 75° (ENE) 21:32:57 145.840 MHz, 145.915 MHz
RS-15 23 Aug 21:32:05 21:33:21 10° 265° (W) 21:34:38 29.354 - 29.394 USB, Beacon 29.352 USB
Oscar 11 23 Aug 21:38:40 21:42:56 63° 75° (ENE) 21:47:14 145.825 FM, Beacon 2401.500 USB
FUNcube-1 23 Aug 21:43:59 21:47:24 25° 69° (ENE) 21:50:50 145.950 - 145.970 MHz USB
ISS 23 Aug 21:46:31 21:46:52 10° 233° (SW) 21:47:13 145.800 FM
HO-68 23 Aug 22:20:53 22:26:45 27° 265° (W) 22:32:39 435.675 MHz FM
MaSat-1 23 Aug 23:14:24 23:16:26 12° 46° (NE) 23:18:22 437.345 MHz
Oscar 11 23 Aug 23:18:50 23:19:31 10° 270° (W) 23:20:12 145.825 FM, Beacon 2401.500 USB
FUNcube-1 23 Aug 23:20:22 23:23:44 24° 265° (W) 23:27:08 145.950 - 145.970 MHz USB
KITSAT 1 23 Aug 23:52:26 23:58:55 27° 105° (ESE) 00:05:24 435.175 FM
MaSat-1 24 Aug 00:49:33 00:54:21 85° 247° (WSW) 00:58:29 437.345 MHz
Saudisat 1A 24 Aug 00:49:52 00:54:16 79° 302° (WNW) 00:58:43 436.775 MHz
Oscar 19 24 Aug 01:26:57 01:30:40 20° 93° (E) 01:34:21 437.125 CW, 437.150 USB
ITAMSAT 1 24 Aug 01:44:02 01:45:27 11° 90° (E) 01:46:53 435.822 SSB
KITSAT 1 24 Aug 01:45:42 01:53:42 64° 303° (WNW) 02:01:45 435.175 FM
Uribyol 2 24 Aug 01:54:28 01:57:37 16° 92° (E) 02:00:45 436.500 FM
Oscar 16 24 Aug 01:59:33 02:04:29 42° 99° (E) 02:09:23 437.025 USB, Beacon 2401.1428
AO-27 24 Aug 02:08:52 02:12:48 21° 94° (E) 02:16:42 436.795 MHz FM
Oscar 10/S400 24 Aug 02:12:56 20:31:29 58° 161° (SSE) 03:43:01 145.825 - 145.975 CW/USB, Beacon 145.810 USB
Sapphire 24 Aug 02:16:11 02:18:22 12° 41° (NE) 02:20:32 437.095 MHz 1200 baud AX-25 AFSK
Saudisat 1A 24 Aug 02:33:12 02:34:35 11° 321° (NW) 02:35:59 436.775 MHz
PCSat 24 Aug 02:45:11 02:49:16 21° 48° (NE) 02:53:20 145.825 MHz
TMSAT-1 24 Aug 02:51:01 02:54:27 17° 92° (E) 02:57:52 436.925 FM
AO-Echo 24 Aug 02:53:08 02:57:49 63° 101° (ESE) 03:02:27 ?
Oscar 19 24 Aug 03:05:14 03:10:13 48° 289° (WNW) 03:15:11 437.125 CW, 437.150 USB
ITAMSAT 1 24 Aug 03:20:19 03:25:30 79° 285° (WNW) 03:30:40 435.822 SSB
JAS-1B 24 Aug 03:22:25 03:29:43 79° 103° (ESE) 03:35:50 435.800 - 435.900 CW/SSB
Uribyol 2 24 Aug 03:32:21 03:37:26 57° 288° (WNW) 03:42:30 436.500 FM
Gurwin Techsat 1B 24 Aug 03:32:56 03:38:12 61° 101° (E) 03:43:26 435.225 FM
OPAL 24 Aug 03:36:51 03:41:17 33° 66° (ENE) 03:45:47 ?
Oscar 16 24 Aug 03:39:31 03:43:33 23° 295° (WNW) 03:47:33 437.025 USB, Beacon 2401.1428
KITSAT 1 24 Aug 03:45:45 03:50:51 18° 327° (NNW) 03:55:59 435.175 FM
AO-27 24 Aug 03:47:35 03:52:28 43° 290° (WNW) 03:57:19 436.795 MHz FM
Sapphire 24 Aug 03:57:21 04:02:47 71° 61° (ENE) 04:08:11 437.095 MHz 1200 baud AX-25 AFSK
AO-7 24 Aug 04:09:44 04:16:25 26° 95° (E) 04:23:02 29.400 - 29.500 MHz
PCSat 24 Aug 04:27:45 04:33:06 60° 246° (WSW) 04:38:23 145.825 MHz
TMSAT-1 24 Aug 04:29:32 04:34:41 55° 288° (WNW) 04:39:50 436.925 FM
AO-Echo 24 Aug 04:33:51 04:36:02 13° 298° (WNW) 04:38:13 ?
SO-50 24 Aug 05:02:57 05:06:57 34° 114° (ESE) 05:11:03 436.795 FM
Gurwin Techsat 1B 24 Aug 05:14:19 05:17:38 17° 297° (WNW) 05:20:57 435.225 FM
JAS-1B 24 Aug 05:14:40 05:19:10 18° 306° (NW) 05:23:17 435.800 - 435.900 CW/SSB
Uosat F 24 Aug 05:15:20 05:20:22 82° 103° (ESE) 05:25:21 435.120 FM
OPAL 24 Aug 05:15:52 05:20:08 28° 262° (W) 05:24:28 ?
Sapphire 24 Aug 05:42:43 05:45:33 15° 257° (WSW) 05:48:23 437.095 MHz 1200 baud AX-25 AFSK
AO-7 24 Aug 06:01:31 06:09:41 65° 292° (WNW) 06:17:49 29.400 - 29.500 MHz
UOSAT-12 24 Aug 06:06:37 06:07:53 11° 106° (ESE) 06:09:09 437.025 FM, 437.400 FM
Hamsat 24 Aug 06:24:14 06:28:22 41° 98° (E) 06:32:28 145.90 MHz
SO-50 24 Aug 06:43:45 06:47:32 26° 312° (NW) 06:51:25 436.795 FM
JAS-2 24 Aug 06:44:12 06:49:17 55° 101° (E) 06:54:34 435.800 - 435.900 CW/SSB, 435.910 FM
STRAND 1 24 Aug 06:46:37 06:51:43 80° 75° (ENE) 06:56:50 ?
Uosat F 24 Aug 06:56:41 06:58:26 12° 300° (WNW) 07:00:12 435.120 FM
RS-15 24 Aug 07:25:32 07:33:36 24° 102° (ESE) 07:41:30 29.354 - 29.394 USB, Beacon 29.352 USB
SO-67 24 Aug 07:35:30 07:38:42 34° 98° (E) 07:41:52 435.3500 MHz FM
UOSAT-12 24 Aug 07:42:44 07:47:20 76° 303° (WNW) 07:52:03 437.025 FM, 437.400 FM
KITSAT 1 24 Aug 07:46:10 07:50:33 15° 30° (NNE) 07:54:56 435.175 FM
AO-7 24 Aug 07:57:06 08:00:52 14° 313° (NW) 08:04:38 29.400 - 29.500 MHz
Hamsat 24 Aug 08:01:08 08:04:00 17° 294° (WNW) 08:06:50 145.90 MHz
STRAND 1 24 Aug 08:30:21 08:31:28 11° 270° (W) 08:32:35 ?
JAS-2 24 Aug 08:30:46 08:34:00 17° 297° (WNW) 08:37:16 435.800 - 435.900 CW/SSB, 435.910 FM
SO-67 24 Aug 09:09:55 09:11:25 12° 293° (WNW) 09:12:54 435.3500 MHz FM
UKube-1 24 Aug 09:15:18 09:17:36 14° 92° (E) 09:19:53 145.840 MHz, 145.915 MHz
Saudisat 1A 24 Aug 09:17:42 09:22:05 58° 56° (NE) 09:26:24 436.775 MHz
UOSAT-12 24 Aug 09:26:33 09:28:19 12° 322° (NW) 09:30:06 437.025 FM, 437.400 FM
Oscar 11 24 Aug 09:29:23 09:31:18 13° 91° (E) 09:33:12 145.825 FM, Beacon 2401.500 USB
RS-15 24 Aug 09:33:27 09:44:36 83° 301° (WNW) 09:55:35 29.354 - 29.394 USB, Beacon 29.352 USB
KITSAT 1 24 Aug 09:40:10 09:48:03 53° 54° (NE) 09:55:53 435.175 FM
HO-68 24 Aug 09:48:02 09:55:08 62° 103° (ESE) 10:02:11 435.675 MHz FM
UKube-1 24 Aug 10:49:52 10:54:02 47° 288° (WNW) 10:58:11 145.840 MHz, 145.915 MHz
Saudisat 1A 24 Aug 10:58:59 11:01:09 14° 252° (WSW) 11:03:18 436.775 MHz
Oscar 11 24 Aug 11:03:31 11:07:47 53° 286° (WNW) 11:12:01 145.825 FM, Beacon 2401.500 USB
FUNcube-1 24 Aug 11:09:15 11:13:42 67° 101° (E) 11:18:13 145.950 - 145.970 MHz USB
AO-40 24 Aug 11:20:24 02:54:44 42° 183° (S) 11:49:01 Beacon 2401.320
KITSAT 1 24 Aug 11:36:05 11:43:06 34° 253° (WSW) 11:50:06 435.175 FM
HO-68 24 Aug 11:36:42 11:42:17 26° 300° (WNW) 11:47:52 435.675 MHz FM
